N0ZMJ-4 Weather Reports


Display with metric or nautical units.
time (UTC)temp
F
wind
direction
speed
MPH
gust
MPH
rain 1hr
in
rain 24hr
in
rain mn
in
humidity
%
barometer
mb
20260503033003 59 232 3.0 5.0 0.00 0.00 0.00 51 1006.9
20260503032503 59 232 2.0 5.0 0.00 0.00 0.00 51 1006.9
20260503032002 59 232 2.0 5.0 0.00 0.00 0.00 51 1006.9
20260503031503 59 232 2.0 4.0 0.00 0.00 0.00 51 1007.0
20260503031002 59 232 1.0 6.0 0.00 0.00 0.00 51 1006.9
20260503030503 59 232 1.0 7.0 0.00 0.00 0.00 50 1007.0
20260503030003 60 218 3.0 7.0 0.00 0.00 0.00 49 1007.1
20260503025503 60 234 3.0 7.0 0.00 0.00 0.00 48 1007.0
20260503025003 60 218 4.0 10.0 0.00 0.00 0.00 47 1006.8
20260503024503 61 216 5.0 10.0 0.00 0.00 0.00 46 1006.9
20260503024003 61 214 4.0 10.0 0.00 0.00 0.00 46 1007.0
20260503023502 61 215 5.0 10.0 0.00 0.00 0.00 45 1007.0
20260503023003 62 213 6.0 10.0 0.00 0.00 0.00 44 1007.0
20260503022502 62 214 4.0 10.0 0.00 0.00 0.00 44 1006.9
20260503022003 62 232 2.0 12.0 0.00 0.00 0.00 43 1006.9
20260503021503 63 220 5.0 12.0 0.00 0.00 0.00 43 1007.1
20260503021003 62 214 5.0 12.0 0.00 0.00 0.00 43 1007.1
20260503020503 62 236 4.0 12.0 0.00 0.00 0.00 44 1007.1
20260503020003 62 204 5.0 11.0 0.00 0.00 0.00 43 1006.8
20260503015503 63 207 5.0 10.0 0.00 0.00 0.00 43 1007.0
20260503015002 63 213 5.0 9.0 0.00 0.00 0.00 43 1007.1
20260503014503 63 211 5.0 11.0 0.00 0.00 0.00 43 1007.1
20260503014002 63 210 5.0 11.0 0.00 0.00 0.00 43 1007.1
20260503013503 63 212 5.0 9.0 0.00 0.00 0.00 42 1007.2
20260503013002 64 207 6.0 10.0 0.00 0.00 0.00 43 1007.1
20260503012503 64 208 4.0 10.0 0.00 0.00 0.00 42 1007.2
20260503012003 64 206 4.0 10.0 0.00 0.00 0.00 41 1007.2
20260503011503 65 217 4.0 9.0 0.00 0.00 0.00 41 1007.2
20260503011003 65 211 4.0 7.0 0.00 0.00 0.00 40 1007.1
20260503010502 65 212 4.0 8.0 0.00 0.00 0.00 40 1007.3
20260503010003 66 220 4.0 9.0 0.00 0.00 0.00 39 1007.4
20260503005502 66 212 3.0 9.0 0.00 0.00 0.00 39 1007.3
20260503005003 66 223 3.0 10.0 0.00 0.00 0.00 38 1007.4
20260503004503 67 223 3.0 10.0 0.00 0.00 0.00 38 1007.5
20260503004003 67 219 5.0 12.0 0.00 0.00 0.00 37 1007.7
20260503003503 67 225 6.0 12.0 0.00 0.00 0.00 36 1007.8
20260503003003 68 224 6.0 15.0 0.00 0.00 0.00 36 1007.9
20260503002503 68 219 6.0 15.0 0.00 0.00 0.00 35 1007.9
20260503002003 68 226 5.0 14.0 0.00 0.00 0.00 35 1008.1
20260503001503 67 220 5.0 14.0 0.00 0.00 0.00 35 1008.2
20260503001002 67 213 7.0 12.0 0.00 0.00 0.00 35 1008.4
20260503000503 67 222 6.0 13.0 0.00 0.00 0.00 34 1008.6
20260503000002 67 221 5.0 13.0 0.00 0.00 0.00 34 1008.7
20260502235503 67 217 6.0 14.0 0.00 0.00 0.00 33 1008.7
20260502235003 67 224 7.0 14.0 0.00 0.00 0.00 33 1008.8
20260502234503 67 220 8.0 17.0 0.00 0.00 0.00 33 1008.9
20260502234003 68 222 7.0 17.0 0.00 0.00 0.00 32 1009.2
20260502233503 68 231 6.0 19.0 0.00 0.00 0.00 32 1009.1
20260502233003 68 226 5.0 19.0 0.00 0.00 0.00 33 1009.2
20260502232503 69 221 6.0 15.0 0.00 0.00 0.00 32 1009.1
20260502232003 69 231 6.0 13.0 0.00 0.00 0.00 32 1009.2
20260502231502 68 234 7.0 18.0 0.00 0.00 0.00 32 1009.2
20260502231003 68 242 6.0 18.0 0.00 0.00 0.00 32 1009.1
20260502230503 68 218 9.0 18.0 0.00 0.00 0.00 32 1009.2
20260502230003 68 228 5.0 19.0 0.00 0.00 0.00 32 1009.3
20260502225503 68 238 6.0 19.0 0.00 0.00 0.00 32 1009.3
20260502225003 68 241 6.0 24.0 0.00 0.00 0.00 33 1009.5
20260502224503 68 218 10.0 24.0 0.00 0.00 0.00 33 1009.5
20260502224002 68 234 7.0 19.0 0.00 0.00 0.00 33 1009.6
20260502223503 68 221 9.0 16.0 0.00 0.00 0.00 33 1009.7
20260502223002 68 219 8.0 19.0 0.00 0.00 0.00 33 1009.8
20260502222503 68 227 8.0 19.0 0.00 0.00 0.00 34 1009.9
20260502222002 68 217 8.0 17.0 0.00 0.00 0.00 35 1009.9
20260502221503 68 226 9.0 17.0 0.00 0.00 0.00 34 1010.1
20260502221003 68 221 8.0 16.0 0.00 0.00 0.00 35 1010.1
20260502220503 68 230 7.0 19.0 0.00 0.00 0.00 35 1010.1
20260502220003 67 223 7.0 19.0 0.00 0.00 0.00 35 1010.1
20260502215502 68 220 8.0 20.0 0.00 0.00 0.00 34 1010.1
20260502215003 68 222 7.0 20.0 0.00 0.00 0.00 35 1010.0
20260502214502 68 230 9.0 19.0 0.00 0.00 0.00 34 1010.1
20260502214003 68 224 9.0 20.0 0.00 0.00 0.00 35 1010.3
20260502213503 68 233 6.0 20.0 0.00 0.00 0.00 35 1010.3
20260502213003 68 217 8.0 19.0 0.00 0.00 0.00 36 1010.3
20260502212503 67 217 11.0 19.0 0.00 0.00 0.00 35 1010.3
20260502212004 67 219 9.0 16.0 0.00 0.00 0.00 36 1010.5
20260502211503 67 225 4.0 17.0 0.00 0.00 0.00 38 1010.8
20260502211002 66 213 6.0 17.0 0.00 0.00 0.00 36 1011.0
20260502210503 66 209 7.0 17.0 0.00 0.00 0.00 38 1011.1
20260502210002 66 221 9.0 17.0 0.00 0.00 0.00 37 1011.3
20260502205503 66 215 7.0 14.0 0.00 0.00 0.00 37 1011.4
20260502205003 66 228 7.0 13.0 0.00 0.00 0.00 36 1011.6
20260502204503 67 236 7.0 16.0 0.00 0.00 0.00 36 1011.6
20260502204003 67 224 6.0 16.0 0.00 0.00 0.00 37 1011.9
20260502203502 66 239 7.0 15.0 0.00 0.00 0.00 36 1012.2
20260502203003 66 255 7.0 15.0 0.00 0.00 0.00 36 1012.4
20260502202502 66 239 6.0 15.0 0.00 0.00 0.00 37 1012.5
20260502202003 67 236 5.0 15.0 0.00 0.00 0.00 38 1012.3
20260502201502 67 218 5.0 14.0 0.00 0.00 0.00 38 1012.1
20260502201003 67 232 5.0 16.0 0.00 0.00 0.00 38 1012.2
20260502200502 67 228 5.0 17.0 0.00 0.00 0.00 39 1012.2
20260502200003 67 233 4.0 17.0 0.00 0.00 0.00 40 1012.2
20260502195503 67 224 8.0 15.0 0.00 0.00 0.00 38 1012.4
20260502195002 67 248 7.0 18.0 0.00 0.00 0.00 38 1012.4
20260502194503 67 218 9.0 18.0 0.00 0.00 0.00 39 1012.4
20260502194002 67 224 8.0 17.0 0.00 0.00 0.00 40 1012.3
20260502193503 66 216 7.0 14.0 0.00 0.00 0.00 40 1012.5
20260502193002 66 230 7.0 14.0 0.00 0.00 0.00 41 1012.6
20260502192503 65 216 9.0 17.0 0.00 0.00 0.00 42 1012.7
20260502192003 64 223 7.0 17.0 0.00 0.00 0.00 43 1012.9
20260502191503 64 232 4.0 14.0 0.00 0.00 0.00 43 1013.1
20260502191003 64 223 7.0 14.0 0.00 0.00 0.00 42 1013.2
20260502190503 64 213 6.0 13.0 0.00 0.00 0.00 42 1013.5
20260502190003 64 234 8.0 15.0 0.00 0.00 0.00 40 1013.6
20260502185502 65 228 8.0 18.0 0.00 0.00 0.00 42 1013.6
20260502185003 65 216 8.0 18.0 0.00 0.00 0.00 43 1013.7
20260502184502 65 216 6.0 14.0 0.00 0.00 0.00 44 1013.8
20260502184003 65 232 7.0 13.0 0.00 0.00 0.00 41 1013.7
20260502183502 65 225 7.0 16.0 0.00 0.00 0.00 44 1013.9
20260502183003 65 229 8.0 16.0 0.00 0.00 0.00 44 1014.0
20260502182503 64 238 7.0 13.0 0.00 0.00 0.00 45 1014.0
20260502182003 64 252 6.0 19.0 0.00 0.00 0.00 44 1014.1
20260502181503 63 241 7.0 19.0 0.00 0.00 0.00 45 1014.3
20260502181003 63 244 6.0 15.0 0.00 0.00 0.00 45 1014.4
20260502180503 63 250 6.0 15.0 0.00 0.00 0.00 45 1014.4
20260502170502 61 243 7.0 17.0 0.00 0.00 0.00 45 1015.3
20260502164003 60 250 5.0 15.0 0.00 0.00 0.00 49 1015.5
20260502163502 60 244 6.0 14.0 0.00 0.00 0.00 48 1015.6
20260502163003 60 237 6.0 13.0 0.00 0.00 0.00 49 1015.7
20260502162503 59 232 5.0 12.0 0.00 0.00 0.00 52 1015.7
20260502162003 59 242 5.0 12.0 0.00 0.00 0.00 50 1015.8
20260502161503 59 248 4.0 10.0 0.00 0.00 0.00 51 1015.8
20260502161003 58 249 4.0 10.0 0.00 0.00 0.00 52 1015.8
20260502160503 58 248 4.0 14.0 0.00 0.00 0.00 52 1015.7
20260502152003 56 241 5.0 11.0 0.00 0.00 0.00 55 1016.2
20260502151503 56 253 4.0 9.0 0.00 0.00 0.00 55 1016.2
20260502151003 55 222 3.0 10.0 0.00 0.00 0.00 56 1016.1
20260502150503 55 235 6.0 11.0 0.00 0.00 0.00 55 1016.2
20260502130502 42 227 3.0 8.0 0.00 0.00 0.00 73 1017.1
20260502123503 38 240 1.0 3.0 0.00 0.00 0.00 79 1017.3
20260502123003 37 240 1.0 3.0 0.00 0.00 0.00 79 1017.2
20260502122503 37 240 1.0 4.0 0.00 0.00 0.00 79 1017.2
20260502122003 37 240 2.0 4.0 0.00 0.00 0.00 79 1017.3
20260502121503 36 240 1.0 3.0 0.00 0.00 0.00 80 1017.3
20260502121002 36 240 1.0 3.0 0.00 0.00 0.00 79 1017.4
20260502120503 36 240 1.0 4.0 0.00 0.00 0.00 80 1017.3
20260502115503 35 240 1.0 4.0 0.00 0.00 0.00 79 1017.4
20260502115003 35 240 1.0 4.0 0.00 0.00 0.00 79 1017.4
20260502114502 35 240 0.0 1.0 0.00 0.00 0.00 79 1017.5
20260502114003 35 240 0.0 2.0 0.00 0.00 0.00 79 1017.5
20260502113502 36 240 1.0 2.0 0.00 0.00 0.00 78 1017.5
20260502113003 36 240 1.0 2.0 0.00 0.00 0.00 78 1017.5
20260502112502 36 240 1.0 2.0 0.00 0.00 0.00 78 1017.5
20260502112003 36 240 1.0 3.0 0.00 0.00 0.00 78 1017.5
20260502111503 36 240 1.0 3.0 0.00 0.00 0.00 78 1017.5
20260502111002 36 240 1.0 3.0 0.00 0.00 0.00 77 1017.4
20260502110503 36 240 1.0 2.0 0.00 0.00 0.00 77 1017.4
20260502110002 36 240 1.0 3.0 0.00 0.00 0.00 77 1017.5
20260502105503 36 240 2.0 3.0 0.00 0.00 0.00 77 1017.5
20260502105003 37 240 1.0 4.0 0.00 0.00 0.00 77 1017.5
20260502104503 37 240 2.0 5.0 0.00 0.00 0.00 77 1017.5
20260502104003 37 240 2.0 5.0 0.00 0.00 0.00 77 1017.5
20260502103502 37 240 2.0 5.0 0.00 0.00 0.00 77 1017.6
20260502103003 37 240 3.0 5.0 0.00 0.00 0.00 77 1017.8
20260502102502 37 240 2.0 5.0 0.00 0.00 0.00 77 1017.7
20260502102003 37 240 2.0 5.0 0.00 0.00 0.00 78 1017.8
20260502101503 36 240 3.0 4.0 0.00 0.00 0.00 78 1017.7
20260502101003 36 240 2.0 5.0 0.00 0.00 0.00 78 1017.8
20260502100503 36 242 2.0 5.0 0.00 0.00 0.00 78 1017.8
20260502091502 36 277 1.0 4.0 0.00 0.00 0.00 78 1017.9
20260502091003 36 277 1.0 3.0 0.00 0.00 0.00 78 1017.9
20260502090503 36 277 1.0 2.0 0.00 0.00 0.00 78 1018.0
20260502071503 34 357 0.0 1.0 0.00 0.00 0.00 82 1018.0
20260502071003 34 357 0.0 1.0 0.00 0.00 0.00 82 1018.2
20260502070503 34 357 0.0 1.0 0.00 0.00 0.00 82 1018.2
20260502070003 34 357 0.0 2.0 0.00 0.00 0.00 82 1018.2
20260502065503 34 357 1.0 2.0 0.00 0.00 0.00 81 1018.2
20260502065003 34 358 0.0 0.0 0.00 0.00 0.00 81 1018.2
20260502064502 34 358 0.0 0.0 0.00 0.00 0.00 81 1018.3
20260502064003 35 358 0.0 1.0 0.00 0.00 0.00 81 1018.3
20260502063502 35 357 0.0 2.0 0.00 0.00 0.00 81 1018.3
20260502063003 35 358 0.0 2.0 0.00 0.00 0.00 81 1018.3
20260502062503 35 357 0.0 1.0 0.00 0.00 0.00 81 1018.4
20260502062003 35 357 0.0 2.0 0.00 0.00 0.00 81 1018.4
20260502061503 35 357 1.0 2.0 0.00 0.00 0.00 80 1018.4
20260502061004 35 358 0.0 1.0 0.00 0.00 0.00 80 1018.4
20260502060503 35 357 0.0 1.0 0.00 0.00 0.00 80 1018.4
20260502060002 35 357 0.0 1.0 0.00 0.00 0.00 80 1018.5
20260502055503 35 358 0.0 0.0 0.00 0.00 0.00 80 1018.5
20260502055002 36 358 0.0 1.0 0.00 0.00 0.00 79 1018.5
20260502054503 36 357 0.0 1.0 0.00 0.00 0.00 79 1018.5
20260502054003 36 358 0.0 2.0 0.00 0.00 0.00 79 1018.6
20260502053503 36 357 1.0 2.0 0.00 0.00 0.00 78 1018.7
20260502053003 37 357 0.0 2.0 0.00 0.00 0.00 78 1018.6
20260502052503 37 358 0.0 0.0 0.00 0.00 0.00 77 1018.5
20260502052003 37 358 0.0 0.0 0.00 0.00 0.00 78 1018.6
20260502051502 37 358 0.0 0.0 0.00 0.00 0.00 77 1018.5
20260502051003 37 358 0.0 0.0 0.00 0.00 0.00 77 1018.5
20260502050502 37 358 0.0 0.0 0.00 0.00 0.00 76 1018.5
20260502050003 37 358 0.0 0.0 0.00 0.00 0.00 75 1018.5
20260502045502 38 358 0.0 0.0 0.00 0.00 0.00 75 1018.5
20260502045003 38 358 0.0 0.0 0.00 0.00 0.00 74 1018.5
20260502044503 38 358 0.0 0.0 0.00 0.00 0.00 73 1018.6
20260502044002 38 358 0.0 0.0 0.00 0.00 0.00 73 1018.5
20260502043503 39 358 0.0 0.0 0.00 0.01 0.00 73 1018.6
20260502043002 39 358 0.0 0.0 0.00 0.01 0.00 72 1018.5
20260502042503 39 358 0.0 0.0 0.00 0.01 0.00 72 1018.4
20260502042003 39 358 0.0 0.0 0.00 0.01 0.00 72 1018.5
20260502041503 39 358 0.0 0.0 0.00 0.02 0.00 71 1018.6
20260502041003 40 358 0.0 0.0 0.00 0.03 0.00 70 1018.6
20260502040503 40 358 0.0 0.0 0.00 0.03 0.00 70 1018.6
20260502040003 40 358 0.0 0.0 0.00 0.03 0.00 69 1018.6
20260502035502 40 358 0.0 0.0 0.00 0.03 0.00 68 1018.5
20260502035003 41 358 0.0 0.0 0.00 0.03 0.00 69 1018.6
20260502034502 41 358 0.0 0.0 0.00 0.03 0.00 68 1018.5
20260502034003 41 358 0.0 0.0 0.00 0.03 0.00 67 1018.6
20260502033502 42 358 0.0 0.0 0.00 0.03 0.00 65 1018.6